Montreal Mirabel, Quebec

10:59 AM EST on December 14, 2017 (GMT -0500)
Montreal Mirabel

Weather History for CYMX - June, 2014

Change the Weather History Date:

Sunday, June 8, 2014

  Actual Average Record
Temperature  
Mean Temperature 68 °F -  
Max Temperature 80 °F 69 °F 87 °F (2011)
Min Temperature 57 °F 50 °F 48 °F (2002)
Cooling Degree Days 4    
Growing Degree Days 18 (Base 50)    
Moisture  
Dew Point 55 °F    
Average Humidity 63    
Maximum Humidity 88    
Minimum Humidity 37    
Precipitation  
Precipitation 0.00 in - - ()
Sea Level Pressure  
Sea Level Pressure 29.90 in    
Wind  
Wind Speed 4 mph ()    
Max Wind Speed 9 mph    
Max Gust Speed -    
Averages and records for this station are not official NWS values.
T = Trace of Precipitation, MM = Missing Value Source: Averaged Metar Reports

Daily Weather History Graph

Daily Weather History Graph

Search for Another Location

Airport or City:

Trip Planner

Search our weather history database for the weather conditions in past years. The results will help you decide how hot, cold, wet, or windy it might be!

Date:

Astronomy

Jun. 08, 2014 Rise Set
Actual Time 5:07 AM EDT 8:43 PM EDT
Civil Twilight 4:29 AM EDT 9:21 PM EDT
Nautical Twilight 3:39 AM EDT 10:11 PM EDT
Astronomical Twilight 2:32 AM EDT 11:19 PM EDT
Moon 3:46 PM EDT (6/8) 2:13 AM EDT (6/8)
Length of Visible Light 16h 51m
Length of Day
15h 36m
Waxing Gibbous, 77% of the Moon is Illuminated
Jun 8
Waxing Gibbous
Jun 13
Full
Jun 19
Last Quarter
Jun 27
New
Jul 5
First Quarter

Hourly Weather History & Observations

Time (EDT) Temp. Heat Index Dew Point Humidity Pressure Visibility Wind Dir Wind Speed Gust Speed Precip Events Conditions
12:00 AM 66.2 °F - 51.8 °F 60% 29.93 in 25.0 mi Variable 2.3 mph - N/A   Clear
1:00 AM 64.4 °F - 51.8 °F 64% 29.93 in 25.0 mi WSW 3.5 mph - N/A   Clear
2:00 AM 64.4 °F - 53.6 °F 68% 29.92 in 25.0 mi West 8.1 mph - N/A   Partly Cloudy
3:00 AM 60.8 °F - 53.6 °F 77% 29.92 in 25.0 mi WSW 5.8 mph - N/A   Partly Cloudy
4:00 AM 59.0 °F - 53.6 °F 82% 29.92 in 25.0 mi West 3.5 mph - N/A   Scattered Clouds
5:00 AM 57.2 °F - 53.6 °F 88% 29.92 in 45.0 mi SW 4.6 mph - N/A   Scattered Clouds
6:00 AM 57.2 °F - 51.8 °F 82% 29.93 in 45.0 mi Variable 2.3 mph - N/A   Scattered Clouds
7:00 AM 60.8 °F - 51.8 °F 72% 29.93 in 45.0 mi WSW 6.9 mph - N/A   Mostly Cloudy
8:00 AM 64.4 °F - 55.4 °F 73% 29.93 in 45.0 mi SW 5.8 mph - N/A   Mostly Cloudy
9:00 AM 66.2 °F - 57.2 °F 73% 29.94 in 45.0 mi SSW 5.8 mph - N/A   Mostly Cloudy
10:00 AM 69.8 °F - 57.2 °F 64% 29.94 in 45.0 mi SSW 4.6 mph - N/A   Mostly Cloudy
11:00 AM 73.4 °F - 57.2 °F 57% 29.94 in 45.0 mi SW 9.2 mph - N/A   Mostly Cloudy
12:00 PM 75.2 °F - 59.0 °F 57% 29.93 in 45.0 mi WSW 5.8 mph - N/A   Overcast
2:00 PM 80.6 °F - 51.8 °F 37% 29.89 in 45.0 mi SSW 5.8 mph - N/A   Mostly Cloudy
3:00 PM 80.6 °F 80.5 °F 55.4 °F 42% 29.87 in 45.0 mi SSW 3.5 mph - N/A   Mostly Cloudy
4:00 PM 80.6 °F - 51.8 °F 37% 29.86 in 45.0 mi SW 4.6 mph - N/A   Mostly Cloudy
5:00 PM 78.8 °F - 53.6 °F 42% 29.87 in 45.0 mi SW 3.5 mph - N/A   Overcast
6:00 PM 78.8 °F - 53.6 °F 42% 29.85 in 45.0 mi SW 2.3 mph - N/A   Overcast
7:00 PM 75.2 °F - 62.6 °F 65% 29.86 in 45.0 mi Calm Calm - N/A   Mostly Cloudy
8:00 PM 73.4 °F - 57.2 °F 57% 29.86 in 45.0 mi Variable 2.3 mph - N/A   Mostly Cloudy
9:00 PM 66.2 °F - 57.2 °F 73% 29.88 in 25.0 mi Calm Calm - N/A   Overcast
10:00 PM 62.6 °F - 55.4 °F 77% 29.88 in 25.0 mi South 3.5 mph - N/A   Overcast
11:00 PM 66.2 °F - 55.4 °F 68% 29.88 in 25.0 mi SW 2.3 mph - N/A   Overcast